T7GPM LIEE-LEAL

Flight info

Callsign T7GPM
Flight time N/A
Altitude 34000
Route KOVAS5K KOVAS DCT XATOS/N0359F330 DCT SOTAX N733 CDP M603 GERVU GERVU3M
Aircraft P180/L-SDE3FGHIRWY/C

Departure

Time 2026-04-30 17:41
Airport Cagliari Elmas Airport (LIEE)

Arrival

Time N/A
Airport Alicante-Elche Miguel Hernández Airport (LEAL)
Time Latitude Longitude Altitude Speed Heading
2026-04-30 17:39 39.24770 9.05846 238 ft 166 kts 140°
2026-04-30 17:41 39.17082 9.14505 3448 ft 197 kts 139°
2026-04-30 17:42 39.14458 9.15684 4127 ft 208 kts 172°
2026-04-30 17:42 39.10404 9.13953 5178 ft 209 kts 224°
2026-04-30 17:43 39.08776 9.10937 5876 ft 204 kts 255°
2026-04-30 17:44 39.08909 9.05703 6904 ft 198 kts 295°
2026-04-30 17:44 39.11277 9.01439 7924 ft 193 kts 307°
2026-04-30 17:46 39.15253 8.94575 9672 ft 187 kts 306°
2026-04-30 17:47 39.18334 8.89303 11019 ft 182 kts 306°
2026-04-30 17:48 39.21329 8.84166 12223 ft 189 kts 306°
2026-04-30 17:48 39.23617 8.79827 12986 ft 202 kts 279°
2026-04-30 17:49 39.24047 8.72497 14037 ft 210 kts 279°
2026-04-30 17:50 39.24799 8.64828 15005 ft 222 kts 278°
2026-04-30 17:51 39.25416 8.58812 15746 ft 227 kts 278°
2026-04-30 17:52 39.26036 8.52742 16501 ft 229 kts 278°
2026-04-30 17:53 39.26995 8.43208 17704 ft 229 kts 278°
2026-04-30 17:54 39.27781 8.35303 19014 ft 213 kts 278°
2026-04-30 17:55 39.28511 8.27939 20333 ft 205 kts 278°
2026-04-30 17:56 39.29243 8.20517 21736 ft 211 kts 277°
2026-04-30 17:57 39.29802 8.14831 22833 ft 215 kts 277°
2026-04-30 17:58 39.30368 8.09014 23923 ft 219 kts 277°
2026-04-30 17:59 39.31173 8.00674 25248 ft 252 kts 277°
2026-04-30 18:00 39.32025 7.91847 26611 ft 245 kts 277°
2026-04-30 18:00 39.32575 7.86056 27545 ft 243 kts 277°